Temperature
22 20 19 20 21 21 22 21 21 22 23 22 21 20 20 20 20 20 19 19 19 19 19 19 19 19 19 19 18 18 18 17 17 16 16 16 16 16 16 15 15 15 15 15
20 20 21 22 22 22 22 21 21 21 23 22 21 20 20 20 19 19 19 18 18 18 18 18 18 18 18 18 18 17 17 17 16 16 16 16 16 16 15 15 15 15 15 14
20 21 23 23 22 22 22 21 21 21 21 21 21 20 19 19 19 19 18 18 18 18 18 18 17 17 18 17 17 17 16 16 16 16 15 15 15 15 15 15 15 14 14 14
21 22 23 23 22 22 21 22 22 22 20 19 20 18 18 18 17 17 17 17 17 17 17 17 17 17 17 17 16 16 16 16 16 15 15 15 15 15 15 15 14 14 14 14
21 22 22 22 23 22 21 22 21 21 20 18 18 18 17 17 17 16 16 17 17 17 16 16 16 16 16 16 16 16 15 15 15 15 15 15 15 15 14 14 14 14 14 14
22 23 23 23 23 23 22 20 20 18 17 18 18 17 16 16 16 16 16 16 16 16 16 16 16 16 16 16 15 15 15 15 15 15 14 15 14 14 14 14 14 14 14 13
20 21 22 23 21 21 20 18 17 17 16 17 17 17 16 16 17 16 16 15 16 16 15 15 16 15 15 15 15 15 15 15 14 14 14 14 14 14 14 14 14 13 13 13
18 19 21 22 21 20 19 18 17 17 17 16 17 16 16 17 17 16 16 15 15 15 15 15 15 15 15 15 15 15 14 14 14 14 14 14 14 13 13 13 13 13 13 13
18 19 21 22 22 21 19 17 17 16 16 16 16 16 16 16 16 16 16 15 15 15 15 15 15 15 15 15 14 14 14 14 14 14 13 13 13 13 13 13 13 13 13 13
18 18 20 21 21 20 19 17 15 15 16 16 16 16 15 15 15 15 15 15 15 15 14 15 15 15 14 14 14 14 14 14 14 13 13 13 13 13 13 13 13 13 13 12
17 17 18 19 19 18 18 17 15 14 15 15 15 15 16 15 15 15 15 15 15 15 14 14 14 14 14 14 14 14 13 13 13 13 13 13 13 13 13 13 13 12 12 12
16 15 16 17 19 19 18 17 16 15 15 15 14 15 16 15 15 15 15 15 15 15 15 14 14 14 14 14 14 13 13 13 13 13 13 13 13 13 12 12 12 12 12 12
17 15 15 16 17 18 18 18 16 15 14 14 14 15 16 15 15 15 15 15 14 14 14 14 14 14 14 14 14 13 13 13 13 13 13 13 13 13 12 12 12 12 12 12
17 14 15 15 16 16 17 18 17 15 14 14 15 15 15 15 14 14 15 15 14 14 14 14 14 14 14 14 13 13 13 13 13 13 13 13 13 12 12 12 12 12 12 12
15 15 16 16 17 18 17 17 17 16 15 15 15 15 15 14 14 14 14 14 14 14 14 14 14 13 13 13 13 13 13 13 13 13 13 13 12 12 12 12 12 12 12 12
14 15 16 16 18 18 17 17 17 17 16 15 15 15 15 15 15 15 14 14 14 14 14 14 13 13 13 13 13 13 13 13 13 13 13 13 12 12 12 12 12 12 12 12
14 14 14 15 16 17 15 16 16 16 15 15 14 14 14 14 14 14 14 14 14 14 14 13 13 13 13 13 13 13 13 13 13 13 13 13 13 12 12 12 12 12 12 12
14 14 13 14 15 15 15 16 16 16 15 15 14 14 14 14 14 15 15 14 14 14 13 13 13 13 13 13 13 13 13 13 13 13 13 13 13 12 12 12 12 12 12 12
14 14 13 13 14 15 16 16 16 15 14 14 14 14 14 14 14 14 14 14 14 14 14 13 13 13 13 13 13 13 13 13 13 13 13 13 13 13 12 12 12 12 12 12
14 13 13 13 14 14 15 16 16 15 14 14 14 14 14 14 12 12 14 14 14 14 14 13 13 13 13 13 13 13 13 13 13 13 13 13 13 13 13 12 12 12 12 12
14 13 13 13 14 14 15 16 16 14 14 14 15 14 14 13 13 13 14 14 14 14 13 13 13 13 13 13 13 13 13 13 13 13 13 13 13 13 13 13 12 12 12 12
13 13 13 13 13 14 15 15 14 13 15 15 15 15 14 14 14 14 14 14 14 13 13 13 13 13 13 13 13 13 13 13 13 13 13 13 13 13 13 13 13 12 12 12
13 13 12 13 13 14 15 15 15 15 15 15 15 15 14 14 14 14 14 14 13 13 13 13 13 13 13 13 13 13 13 13 13 13 13 13 13 13 13 13 13 13 13 13
14 14 13 13 13 15 15 15 15 15 15 15 15 15 14 14 14 14 14 13 13 13 13 13 13 13 13 13 13 13 13 13 13 13 13 13 13 13 13 13 13 13 13 13
14 14 13 13 14 14 15 15 15 15 15 15 15 15 15 14 14 14 14 14 13 13 13 13 13 13 13 13 13 13 13 13 13 13 13 13 13 13 13 13 13 13 13 13
14 13 13 13 14 14 14 15 15 15 15 15 15 15 15 14 14 14 14 14 13 13 13 13 13 13 13 13 13 13 13 13 13 13 13 13 13 13 13 13 13 13 13 13
Wind_Speed
2 2 3 8 7 7 6 5 7 7 4 2 2 1 1 1 3 4 4 5 5 5 3 4 6 6 7 7 7 6 6 5 5 4 4 4 3 3 2 2 3 4 4 4
5 4 9 7 5 4 5 4 6 5 3 2 2 3 3 4 4 4 5 5 5 6 6 6 6 5 5 5 5 5 5 4 4 3 3 3 3 2 3 2 2 3 4 3
3 7 5 2 3 3 3 3 4 3 3 3 3 3 5 5 8 8 6 5 5 7 7 5 5 4 5 4 4 4 4 4 4 3 2 3 3 2 1 1 1 1 3 3
4 6 4 4 4 2 4 6 4 1 2 2 1 1 4 4 8 8 6 5 5 4 5 5 4 3 4 3 3 4 4 4 3 3 4 4 3 2 2 2 2 1 2 2
5 4 3 4 5 3 4 5 2 0 2 1 4 4 3 4 6 6 6 5 4 3 4 4 3 3 3 3 4 3 4 4 3 3 4 4 3 2 1 2 2 1 1 1
4 3 2 3 4 3 2 4 5 5 4 2 2 3 2 3 2 2 4 5 4 2 2 2 2 2 3 3 3 3 3 2 2 3 3 4 4 4 4 3 2 1 0 1
7 6 5 4 6 7 7 6 5 6 4 2 2 4 1 3 2 2 3 4 3 2 2 2 2 1 1 2 2 3 3 2 2 2 3 3 4 4 4 3 2 1 1 1
5 6 6 5 2 1 3 5 4 1 2 2 3 2 0 3 3 4 4 3 3 3 2 1 1 1 2 2 1 2 3 2 2 2 2 3 3 3 2 2 2 2 2 2
3 5 7 7 4 2 3 2 3 4 2 2 2 1 2 7 8 6 5 5 4 3 2 1 1 0 2 2 2 2 3 2 2 2 2 2 2 3 3 2 1 1 2 2
2 3 6 6 6 7 3 2 5 4 3 1 1 1 2 5 5 5 4 3 2 2 2 1 0 1 1 2 2 2 3 3 2 2 2 2 2 3 3 2 2 1 1 1
4 3 6 7 6 6 6 5 4 4 3 3 1 3 1 1 2 1 2 2 1 1 1 1 0 1 1 1 2 2 2 2 2 2 2 3 3 3 2 2 2 1 1 1
5 4 2 4 4 3 6 3 3 4 0 2 2 3 3 1 2 1 2 3 2 1 2 1 1 0 0 1 2 2 2 2 3 3 2 2 2 2 2 2 2 1 1 1
4 5 4 7 7 9 6 6 4 4 3 2 1 3 4 4 4 3 2 3 2 2 3 2 2 1 0 1 1 2 2 2 2 3 3 2 2 2 2 2 2 1 1 1
4 4 4 2 2 3 5 7 6 4 3 1 0 1 3 4 4 4 3 2 2 2 2 3 2 2 2 1 2 2 2 3 3 3 3 3 2 2 2 2 1 1 1 1
5 3 2 0 1 4 7 8 7 5 3 3 1 1 1 2 2 1 1 2 2 2 2 2 2 2 2 1 1 2 2 2 3 3 3 2 2 2 2 1 1 1 1 1
4 2 2 2 5 9 11 11 9 6 4 4 3 1 2 2 2 2 2 2 1 2 2 2 2 2 2 1 1 1 2 2 3 3 2 2 2 2 2 2 1 1 1 1
2 2 3 2 4 4 6 7 6 5 4 3 2 2 3 4 3 1 1 1 1 2 2 3 3 2 1 1 1 2 2 2 3 3 2 2 2 2 2 2 1 1 1 1
2 2 2 1 5 3 1 3 4 5 6 5 4 3 3 3 4 2 1 1 2 3 3 3 2 2 1 1 0 1 1 2 2 2 2 2 2 2 2 1 1 1 0 0
3 4 3 2 2 0 3 5 3 2 3 4 5 5 5 5 6 5 4 3 2 3 2 2 1 1 1 1 0 2 1 1 1 2 2 2 3 2 2 1 1 1 0 1
5 6 4 2 1 0 3 7 5 3 3 4 3 3 4 5 4 4 6 5 4 3 3 3 2 2 2 1 2 3 1 1 1 2 2 2 2 2 2 2 1 1 1 1
4 4 3 1 1 1 4 6 4 3 3 5 2 2 2 2 3 4 4 4 3 3 3 3 3 2 1 1 2 2 1 0 1 1 1 2 1 2 2 1 1 0 0 1
1 1 1 2 1 3 5 3 2 4 4 2 2 1 1 1 2 1 2 3 3 4 3 3 3 3 2 2 2 2 1 1 0 1 1 1 1 1 1 1 0 0 0 1
1 3 3 3 4 4 1 0 2 2 1 2 1 1 1 1 2 2 2 2 2 3 3 2 2 2 2 1 1 1 2 1 1 2 1 0 0 0 0 1 1 0 0 0
3 1 2 1 1 1 1 1 1 1 1 2 1 1 1 0 1 1 1 1 1 2 2 2 2 1 1 1 0 1 1 0 2 1 0 0 1 0 1 1 0 1 1 1
3 1 1 0 1 2 2 1 1 1 2 2 1 1 1 1 0 0 0 0 0 1 2 1 1 0 1 1 1 1 1 1 1 0 1 0 1 1 0 0 1 2 3 4
2 3 3 4 5 3 4 4 2 2 2 1 2 2 1 1 1 1 0 1 0 1 1 1 1 1 1 1 2 2 1 1 1 0 1 1 1 1 1 0 2 3 2 3
Wind_Direction
316 80 249 245 222 218 241 268 281 278 285 64 120 111 54 66 77 94 111 116 116 113 92 93 99 104 104 109 119 132 136 148 149 152 155 151 160 159 161 179 179 167 162 156
12 282 253 252 262 248 252 278 286 296 324 71 141 106 80 66 83 104 112 113 124 105 81 79 85 93 102 108 119 130 143 138 135 150 165 167 157 162 168 173 155 156 157 158
231 265 280 323 335 341 295 275 279 274 347 18 85 46 37 41 61 58 56 73 102 116 115 105 99 93 97 99 114 132 132 126 120 117 104 102 82 73 82 119 157 164 158 154
288 292 337 3 345 348 298 294 284 283 52 317 54 111 7 37 44 41 34 43 77 87 93 105 105 105 109 106 99 97 113 117 121 124 121 127 135 144 193 184 172 161 149 139
301 318 354 354 325 341 288 303 306 117 119 52 22 98 332 34 39 25 25 34 58 84 105 116 126 125 102 95 97 103 102 101 104 124 133 132 122 135 124 114 123 129 126 136
295 326 14 330 330 0 345 12 22 39 67 40 323 108 348 2 21 40 33 49 61 74 85 100 93 84 83 84 101 108 115 130 148 147 143 140 135 135 125 116 123 143 185 202
332 338 350 17 7 358 32 55 30 17 23 294 340 90 42 334 33 83 78 63 54 70 98 117 119 122 92 93 123 113 134 174 169 141 144 154 148 148 157 162 161 162 182 214
5 334 343 359 28 306 358 102 126 170 227 289 8 73 293 335 25 63 72 69 49 39 55 90 139 156 149 158 143 147 164 162 148 142 161 156 149 151 165 170 168 179 198 219
13 311 330 349 2 65 29 38 157 136 75 55 18 29 356 12 18 31 45 51 40 26 20 358 33 95 133 155 183 176 164 155 150 146 153 148 146 150 156 166 169 186 204 220
60 320 335 341 15 19 82 108 67 80 97 51 346 21 319 340 2 11 28 41 23 14 24 357 41 184 144 153 172 148 144 163 173 171 176 163 165 173 171 163 178 209 228 209
50 59 338 3 21 16 24 36 75 88 117 128 300 295 289 275 334 10 17 29 67 60 38 16 310 202 166 129 138 156 159 162 162 178 172 161 166 168 165 164 180 185 193 201
14 85 343 323 335 45 67 58 103 118 49 132 150 270 340 16 318 25 28 19 28 28 31 25 353 1 133 137 139 157 167 167 175 172 158 163 163 152 164 177 194 182 191 223
30 67 21 350 355 11 27 27 47 111 104 95 136 273 346 32 24 28 37 23 20 30 34 28 12 7 310 196 163 165 165 172 173 153 147 149 147 158 174 190 206 210 214 233
70 74 106 132 283 332 2 16 38 81 96 98 181 262 347 14 17 12 19 25 20 52 40 19 6 344 316 244 179 171 164 168 161 153 154 163 177 187 191 191 202 219 222 221
67 72 71 129 346 43 40 30 34 59 109 129 144 101 294 311 328 352 37 47 45 40 14 359 343 329 316 312 184 171 167 162 153 144 151 179 187 185 171 176 203 233 236 232
53 77 26 25 55 61 46 31 29 29 48 84 81 16 317 330 10 42 37 54 47 351 339 335 332 330 310 286 239 167 162 168 150 145 163 178 177 170 169 193 216 244 258 270
22 62 42 336 339 47 30 10 22 36 52 78 69 302 334 1 355 335 356 36 11 329 336 340 331 319 289 274 191 184 194 162 150 164 179 183 178 171 194 198 184 237 259 296
110 83 97 5 30 53 273 323 18 54 57 50 46 2 7 355 334 327 54 77 355 347 343 337 343 339 321 305 297 184 159 141 152 171 182 180 173 180 188 165 197 250 263 332
131 121 90 77 63 54 337 346 346 60 36 38 41 18 12 16 24 10 2 13 341 324 320 319 314 339 3 360 69 89 100 116 146 178 192 185 169 164 163 177 234 233 164 332
43 71 89 74 89 206 304 325 341 68 13 340 25 14 354 12 17 320 329 347 353 352 348 353 9 31 36 13 79 84 62 50 204 206 196 175 161 160 178 198 212 203 158 235
10 25 62 91 148 261 301 323 20 69 270 297 310 307 319 305 246 262 312 339 352 359 2 19 44 44 23 34 76 77 56 286 242 198 146 131 158 179 192 188 181 158 85 21
119 64 26 73 61 284 311 20 74 233 258 289 319 320 4 341 316 330 346 349 1 15 22 39 53 39 22 53 79 80 347 280 224 122 114 124 176 186 165 157 201 102 100 20
141 184 185 174 206 245 317 166 244 217 269 304 326 303 88 48 321 316 335 347 15 29 25 37 68 52 18 19 85 96 280 272 99 98 102 163 190 202 163 159 197 294 325 268
319 24 98 67 278 295 332 360 352 359 302 280 274 272 161 205 297 320 328 351 14 17 18 27 56 52 350 326 338 251 287 94 91 92 261 226 159 54 357 8 187 200 263 264
259 343 64 332 257 14 339 324 304 312 326 353 14 21 163 141 301 157 211 248 355 357 351 7 42 25 318 331 321 298 332 83 103 166 270 236 171 192 230 358 288 240 245 225
246 189 171 220 223 185 248 263 261 292 305 330 50 30 30 116 121 57 272 239 231 301 343 355 349 327 301 321 329 316 306 99 122 279 296 272 241 230 209 208 341 337 289 284
Height
1486 1492 1496 1491 1488 1488 1489 1492 1493 1485 1477 1480 1485 1487 1485 1484 1484 1485 1486 1486 1486 1487 1489 1489 1489 1490 1491 1492 1493 1495 1497 1499 1500 1500 1501 1503 1504 1506 1507 1509 1510 1511 1512 1513
1492 1494 1485 1481 1481 1483 1486 1491 1491 1483 1476 1479 1485 1488 1486 1485 1486 1487 1488 1488 1488 1488 1489 1490 1491 1491 1491 1492 1493 1494 1495 1497 1498 1499 1501 1501 1503 1504 1505 1507 1508 1509 1510 1511
1494 1487 1478 1479 1482 1484 1485 1489 1487 1486 1481 1480 1484 1493 1492 1489 1489 1490 1490 1490 1490 1489 1489 1491 1492 1493 1492 1492 1493 1494 1495 1496 1497 1497 1499 1501 1502 1503 1504 1505 1506 1507 1508 1509
1488 1481 1479 1481 1483 1483 1489 1480 1478 1480 1490 1497 1491 1508 1501 1496 1494 1493 1492 1492 1491 1491 1491 1492 1493 1493 1492 1493 1493 1494 1495 1496 1497 1497 1498 1499 1500 1501 1502 1503 1504 1506 1506 1507
1489 1482 1482 1484 1482 1480 1483 1476 1477 1480 1489 1499 1498 1507 1509 1500 1501 1498 1496 1494 1493 1493 1493 1494 1494 1495 1494 1494 1494 1494 1494 1495 1496 1495 1497 1498 1499 1500 1501 1502 1503 1504 1505 1505
1485 1480 1481 1482 1478 1477 1477 1480 1482 1488 1496 1511 1505 1509 1515 1507 1503 1500 1498 1496 1495 1495 1495 1496 1496 1495 1495 1494 1495 1494 1494 1495 1496 1496 1497 1498 1498 1499 1500 1501 1502 1502 1503 1504
1493 1485 1481 1480 1482 1481 1482 1495 1510 1514 1519 1518 1505 1510 1515 1504 1500 1500 1499 1497 1496 1496 1496 1496 1496 1495 1495 1494 1494 1493 1493 1494 1495 1496 1497 1498 1497 1498 1499 1499 1500 1501 1501 1502
1507 1503 1487 1483 1485 1489 1488 1496 1516 1525 1524 1519 1509 1514 1512 1502 1500 1499 1499 1498 1498 1496 1496 1496 1496 1495 1495 1494 1493 1494 1493 1494 1494 1495 1496 1497 1496 1497 1498 1498 1499 1499 1500 1500
1508 1505 1488 1484 1483 1484 1491 1498 1498 1511 1515 1522 1518 1513 1507 1501 1501 1500 1500 1499 1498 1497 1496 1496 1496 1495 1495 1494 1494 1494 1494 1494 1495 1495 1495 1495 1495 1496 1497 1497 1498 1498 1498 1499
1501 1506 1495 1488 1485 1486 1489 1494 1505 1515 1525 1528 1522 1518 1518 1508 1505 1502 1500 1499 1498 1498 1497 1497 1496 1495 1494 1494 1494 1494 1494 1494 1495 1495 1495 1494 1495 1496 1496 1496 1496 1497 1497 1497
1500 1508 1504 1496 1497 1499 1496 1500 1506 1514 1517 1528 1532 1527 1509 1507 1504 1503 1501 1500 1499 1498 1497 1496 1496 1495 1495 1494 1494 1494 1494 1495 1495 1495 1494 1494 1495 1495 1495 1495 1495 1495 1496 1496
1503 1511 1514 1505 1497 1493 1495 1499 1506 1517 1521 1521 1527 1527 1506 1505 1503 1503 1502 1501 1500 1498 1497 1497 1496 1495 1494 1494 1494 1494 1495 1495 1494 1494 1494 1494 1494 1494 1494 1495 1495 1495 1494 1494
1505 1514 1523 1517 1511 1502 1501 1501 1502 1510 1519 1523 1527 1524 1506 1505 1504 1504 1503 1501 1500 1499 1498 1497 1496 1494 1494 1493 1493 1493 1494 1494 1493 1494 1494 1494 1494 1494 1494 1494 1494 1494 1494 1493
1504 1516 1523 1529 1523 1513 1509 1505 1504 1510 1521 1523 1520 1517 1510 1507 1506 1505 1504 1502 1500 1499 1498 1497 1495 1494 1493 1493 1493 1493 1493 1493 1493 1493 1493 1493 1494 1493 1493 1494 1493 1493 1493 1493
1508 1518 1516 1515 1511 1508 1509 1508 1506 1509 1512 1518 1517 1514 1511 1508 1507 1505 1504 1502 1501 1499 1498 1497 1495 1494 1493 1493 1492 1492 1492 1492 1492 1493 1493 1493 1493 1493 1493 1493 1493 1493 1493 1492
1511 1517 1516 1516 1509 1509 1512 1510 1509 1509 1510 1512 1513 1514 1509 1508 1506 1505 1504 1502 1500 1499 1498 1496 1495 1494 1493 1492 1492 1492 1492 1492 1492 1492 1493 1493 1493 1493 1493 1493 1492 1493 1492 1492
1515 1518 1522 1524 1514 1513 1522 1517 1513 1513 1511 1513 1516 1515 1509 1507 1506 1505 1504 1502 1501 1499 1497 1496 1494 1493 1492 1492 1491 1491 1491 1491 1492 1492 1492 1493 1493 1493 1493 1492 1492 1492 1492 1491
1515 1519 1525 1527 1524 1531 1527 1515 1513 1513 1513 1512 1512 1511 1509 1508 1506 1505 1504 1503 1501 1499 1497 1496 1494 1493 1492 1491 1491 1490 1491 1491 1491 1492 1492 1493 1493 1493 1493 1492 1492 1492 1491 1491
1512 1518 1525 1531 1531 1529 1521 1516 1515 1516 1518 1514 1513 1511 1510 1508 1506 1506 1505 1503 1502 1500 1498 1496 1494 1493 1492 1491 1491 1490 1490 1490 1491 1491 1492 1492 1493 1493 1493 1492 1492 1492 1491 1491
1512 1516 1525 1530 1532 1535 1527 1516 1512 1515 1521 1515 1513 1512 1511 1509 1511 1509 1505 1503 1501 1500 1498 1496 1495 1493 1492 1492 1491 1491 1491 1491 1491 1491 1492 1492 1493 1493 1492 1492 1492 1492 1492 1491
1523 1525 1529 1531 1532 1529 1520 1515 1514 1524 1525 1515 1514 1513 1511 1510 1510 1508 1506 1504 1502 1500 1499 1497 1496 1494 1493 1493 1492 1492 1492 1492 1492 1492 1492 1492 1493 1493 1493 1493 1492 1492 1492 1491
1528 1530 1531 1532 1535 1534 1518 1516 1520 1521 1515 1514 1512 1512 1511 1509 1507 1506 1505 1504 1502 1500 1499 1498 1496 1495 1495 1494 1494 1493 1493 1493 1493 1493 1493 1493 1493 1493 1493 1493 1493 1492 1492 1491
1525 1526 1527 1528 1530 1522 1518 1518 1518 1516 1515 1514 1512 1511 1510 1509 1508 1507 1506 1504 1503 1501 1500 1499 1498 1497 1496 1495 1495 1494 1494 1494 1494 1494 1493 1494 1494 1494 1494 1493 1493 1492 1491 1490
1522 1520 1522 1524 1522 1520 1518 1517 1517 1516 1515 1513 1512 1511 1510 1508 1507 1507 1506 1504 1503 1501 1500 1499 1498 1497 1497 1496 1496 1495 1495 1495 1494 1494 1494 1494 1494 1494 1494 1493 1493 1492 1491 1490
1523 1521 1523 1523 1521 1520 1518 1517 1516 1515 1514 1512 1511 1510 1509 1508 1507 1506 1505 1504 1503 1502 1501 1500 1499 1498 1497 1497 1496 1496 1496 1496 1495 1495 1495 1495 1494 1494 1493 1493 1492 1491 1490 1490
1520 1521 1523 1523 1519 1519 1518 1517 1516 1515 1513 1512 1511 1510 1509 1508 1507 1506 1505 1504 1503 1502 1501 1501 1500 1499 1498 1497 1497 1497 1497 1496 1496 1495 1495 1495 1494 1494 1493 1492 1492 1491 1490 1489